Tracking 28794 objects as of 19-Apr-2024
HD Live streaming from Space Station
objects crossing your sky now

FENGYUN 1C DEB

Track FENGYUN 1C DEB now!
10-day predictions


NORAD ID: 38491
Int'l Code: 1999-025ESA
Perigee: 752.7 km
Apogee: 1,087.2 km
Inclination: 99.0 °
Period: 103.3 minutes
Semi major axis: 7290 km
RCS: 0.0123 m2 (small)
Launch date: May 10, 1999
Source: People's Republic of China (PRC)
Launch site: Taiyaun Space Center, China (TSC)

Note: This is SATELLITE DEBRIS
Your satellite tracking list
Your tracking list is empty




NASA's NSSDC Master Catalog

Two Line Element Set (TLE):
1 38491U 99025ESA 24110.49228886  .00001371  00000-0  85200-3 0  9995
2 38491  98.9532 127.9957 0229371 242.3654 115.4054 13.94530389580607
Source of the keplerian elements: AFSPC